Погода в Ермакове

Россия / Ярославская область     58°19′19″N   41°00′33″E
темп.,
°C
ветер,
м/с
пор.,
м/с
влажн.,
%
обл.,
%
осадки,
мм/ч
давл.,
гПа
погр.,
м
29 мая, вс
вс2900:00+6зюз27975 0.0 1001167
03:00+6юз3119816 0.0 1002354
06:00+8юз3119531 0.0 1003511
09:00+11зюз588383 0.1 1005813
12:00+9юз5889100 0.6 1007581
15:00+14зюз576088 0.9 10071543
18:00+12зюз488051 1.1 1008940
21:00+8юз389692 1.6 1010214
30 мая, пн
пн3000:00+8зюз31096100 0.0 1011292
03:00+6юз289845 0.0 1013215
06:00+8зюз39935 0.0 1014294
09:00+14зюз59635 0.0 10151139
12:00+17з595279 0.4 10171942
15:00+18з474999 0.4 10172366
18:00+17зюз365458 0.0 10181226
21:00+11юз238020 0.0 102043
31 мая, вт
вт3100:00+8зюз1188100 0.0 102111
03:00+8юв118698 0.0 102210
06:00+11юв137750 0.0 1022117
09:00+17ююв245611 0.0 1022733
12:00+20ю354351 0.0 10221916
15:00+20ю344880 0.0 10211723
18:00+19ююв256295 0.0 1021895
21:00+13ю2485100 0.0 1022112
1 июня, ср
ср100:00+13вюв2485100 0.0 102193
03:00+13вюв31296100 1.3 1020539
06:00+13вюв41197100 4.8 1019521
09:00+13юв2799100 9.2 1019382
12:00+13ююв1499100 7.9 1020247
15:00+14юв1298100 10.3 1020230
18:00+14ссз129575 0.1 1021204
21:00+12ссв11987 0.1 102111
2 июня, чт
чт200:00+11ссв1198100 0.0 102211
03:00+10всв119846 0.0 102223
06:00+12всв129633 0.0 1021141
09:00+16вюв2378100 0.1 1020712
12:00+18ююв2368100 0.1 10191077
15:00+19ююв236389 0.1 10181184
18:00+20ю12625 0.0 10171110
21:00+14вюв11875 0.0 101611